Location: Falconara Alta
(43.6167°N, 13.4000°E)
Time: 22:41:50
(UTC+00:00)

Cosmos 1455 - Pass Details

Date: 09 April 2020
Orbit: 498 x 524 km, 82.5° (Epoch: 05 June)

Event Time Altitude Azimuth Distance (km) Brightness Sun altitude
Exits shadow 19:55:50 18° 37° (NE) 1,329 4.2 -22.6°
Drops below altitude 10° 19:57:02 10° 27° (NNE) 1,754 5.0 -22.8°
Sets 19:59:18 0° 18° (NNE) 2,651 6.1 -23.1°
